Location: �couen
(49.0206°N, 2.3831°E)
Time: 23:10:48
(UTC+00:00)

ATLAS 3B R/B - Pass Details

Date: 24 May 2022
Orbit: 976 x 1218 km, 63.8° (Epoch: 20 June)

Event Time Altitude Azimuth Distance (km) Brightness Sun altitude
Rises 20:40:24 0° 315° (NW) 3,901 8.2 -8.7°
Reaches altitude 10° 20:43:11 10° 322° (NW) 2,979 6.7 -9.0°
Maximum altitude 20:49:56 43° 33° (NNE) 1,578 3.7 -9.7°
Drops below altitude 10° 20:57:00 10° 103° (ESE) 3,121 4.7 -10.5°
Enters shadow 20:58:05 - 107° (ESE) 3,472 4.9 -10.6°
